Home   Weather   Bandar Seri Begawan   Past weeks

Flag for Brunei Past Weather in Bandar Seri Begawan, Brunei — Yesterday and Last 2 Weeks

Now
86 °F

Partly sunny.


Feels Like: 97 °F
Forecast: 76 / 91 °F
Wind: 6 mph from Southwest

Location: Brunei Airport

Current Time: Aug 21, 2017 at 6:12:00 pm

Latest Report: Aug 21, 2017 at 5:30 pm


Visibility: N/A

Pressure: 29.71 "Hg

Humidity: 75%

Dew Point: 77 °F

Location of Bandar Seri BegawanLocation

Past Weather in Bandar Seri Begawan — Graph

°F

Bandar Seri Begawan Temperature Yesterday

Maximum temperature yesterday: 90 °F (at 10:30 am)
Minimum temperature yesterday: 77 °F (at 5:30 am)
Average temperature yesterday: 84 °F

High & Low Weather Summary for the Past Weeks

 TemperatureHumidityPressure
High91 °F (Aug 6, 4:00 pm)100% (Aug 7, 5:30 am)29.92 "Hg (Aug 7, 5:30 am)
Low73 °F (Aug 15, 5:00 am)49% (Aug 18, 4:00 pm)29.71 "Hg (Aug 21, 3:00 pm)
Average81 °F85%29.83 "Hg
* Reported Aug 6 4:00 pm — Aug 21 4:30 pm, Bandar Seri Begawan. Weather by CustomWeather, © 2017

Note: Actual official high and low records may vary slightly from our data, if they occured in-between our weather recording intervals... More about our weather records

Advertising

Bandar Seri Begawan Weather History for the Previous 24 Hours

Scroll right to see more
 ConditionsComfort  
Time TempWeatherWind HumidityBarometerVisibility
4:30 pm
Mon, Aug 21
88 °FPartly sunny.12 mph70%29.71 "HgN/A
4:00 pm90 °FPartly sunny.8 mph59%29.71 "HgN/A
3:30 pm90 °FPartly sunny.7 mph59%29.71 "HgN/A
3:00 pm88 °FPartly sunny.7 mph66%29.71 "HgN/A
2:30 pm88 °FPartly sunny.6 mph70%29.74 "HgN/A
2:00 pm88 °FPartly sunny.5 mph66%29.74 "HgN/A
1:30 pm88 °FPartly sunny.7 mph66%29.74 "HgN/A
1:00 pm90 °FBroken clouds.6 mph67%29.74 "HgN/A
12:30 pm90 °FBroken clouds.6 mph63%29.77 "HgN/A
12:00 pm90 °FBroken clouds.5 mph59%29.77 "HgN/A
11:30 am90 °FBroken clouds.7 mph59%29.77 "HgN/A
11:00 am88 °FPartly sunny.7 mph62%29.77 "HgN/A
10:30 am88 °FPartly sunny.6 mph62%29.80 "HgN/A
10:00 am86 °FPartly sunny.7 mph75%29.80 "HgN/A
9:30 am86 °FPartly sunny.6 mph75%29.83 "HgN/A
9:00 am84 °FPartly sunny.5 mph79%29.83 "HgN/A
8:30 am81 °FPartly sunny.3 mph89%29.80 "HgN/A
8:00 am81 °FPartly sunny.2 mph89%29.80 "HgN/A
7:30 am79 °FPartly sunny.5 mph94%29.80 "HgN/A
7:00 am77 °FBroken clouds.5 mph94%29.77 "Hg6 mi
6:30 am77 °FBroken clouds.2 mph94%29.77 "Hg6 mi
6:00 am77 °FPartly cloudy.2 mph94%29.77 "HgN/A
5:30 am77 °FPartly cloudy.1 mph94%29.77 "HgN/A
5:00 am77 °FPartly cloudy.3 mph94%29.77 "HgN/A
4:30 am77 °FPartly cloudy.3 mph94%29.77 "HgN/A
4:00 am79 °FPartly cloudy.5 mph89%29.77 "HgN/A
3:30 am79 °FPartly cloudy.5 mph89%29.77 "HgN/A
3:00 am79 °FPartly cloudy.2 mph89%29.77 "HgN/A
2:30 am79 °FPartly cloudy.3 mph94%29.77 "HgN/A
2:00 am79 °FPartly cloudy.3 mph94%29.77 "HgN/A
1:30 am79 °FPartly cloudy.2 mph94%29.77 "HgN/A
1:00 am79 °FPartly cloudy.2 mph89%29.77 "HgN/A
12:30 am79 °FPartly cloudy.2 mph89%29.80 "HgN/A
12:00 am81 °FPartly cloudy.2 mph89%29.80 "HgN/A
11:30 pm
Sun, Aug 20
81 °FPassing clouds.2 mph84%29.80 "HgN/A
11:00 pm81 °FPassing clouds.5 mph84%29.80 "HgN/A
10:30 pm81 °FPartly cloudy.1 mph84%29.80 "HgN/A
10:00 pm81 °FPartly cloudy.1 mph84%29.80 "HgN/A
9:30 pm81 °FPassing clouds.2 mph84%29.80 "HgN/A
9:00 pm82 °FPassing clouds.1 mph79%29.77 "HgN/A
8:30 pm82 °FPassing clouds.No wind79%29.77 "HgN/A
8:00 pm84 °FPassing clouds.2 mph74%29.77 "HgN/A
7:30 pm84 °FPassing clouds.2 mph70%29.77 "HgN/A
7:00 pm84 °FPassing clouds.2 mph70%29.74 "HgN/A
6:30 pm86 °FPartly sunny.2 mph66%29.74 "HgN/A
6:00 pm86 °FPartly sunny.5 mph66%29.74 "HgN/A
Weather by CustomWeather, © 2017

See weather overviewHow to use our weather pages